When you browse on this site, cookies collect data to enhance your experience and personalize the content and advertising you see.
Visit our Privacy Policy to learn more. By continuing to use the site, you agree to this use of cookies and data.
  • In Sweden
  • List of Countries
  • For 7 days
  • Water Temperature
  • Satellite Maps
  • Weather Map
  • Weather Widgets
  • user-avatar
    Login

    Hourly Weather Psary

    Today, 20 February, Wednesday

    Time Temperature Precipitation Wind Pressure Humidity
    00:00 +4°C° 0 mm 4 mps 743 mmHg 89%
    01:00 +3°C° 0 mm 4 mps 743 mmHg 89%
    02:00 +3°C° 0 mm 4 mps 743 mmHg 89%
    03:00 +1°C° 0 mm 4 mps 743 mmHg 89%
    04:00 +1°C° 0 mm 5 mps 743 mmHg 90%
    05:00 +1°C° 0 mm 5 mps 744 mmHg 89%
    06:00 +1°C° 0 mm 5 mps 744 mmHg 88%
    07:00 +2°C° 0 mm 5 mps 744 mmHg 87%
    08:00 +2°C° 0.1 mm 5 mps 745 mmHg 85%
    09:00 +2°C° 0.1 mm 6 mps 745 mmHg 82%
    10:00 +2°C° 0.1 mm 6 mps 745 mmHg 80%
    11:00 +2°C° 0.1 mm 6 mps 746 mmHg 78%
    12:00 +2°C° 0.1 mm 6 mps 746 mmHg 77%
    13:00 +3°C° 0.1 mm 6 mps 746 mmHg 75%
    14:00 +3°C° 0.1 mm 6 mps 746 mmHg 75%
    15:00 +3°C° 0.1 mm 6 mps 746 mmHg 75%
    16:00 +3°C° 0.1 mm 6 mps 747 mmHg 75%
    17:00 +2°C° 0.1 mm 5 mps 747 mmHg 76%
    18:00 +2°C° 0.1 mm 5 mps 747 mmHg 78%
    19:00 +2°C° 0.1 mm 5 mps 747 mmHg 79%
    20:00 +3°C° 0 mm 4 mps 748 mmHg 80%
    21:00 +3°C° 0 mm 4 mps 748 mmHg 80%
    22:00 +3°C° 0 mm 4 mps 748 mmHg 81%
    23:00 +2°C° 0 mm 3 mps 748 mmHg 83%

    Tomorrow, 21 February, Thursday

    Time Temperature Precipitation Wind Pressure Humidity
    00:00 +2°C° 0 mm 3 mps 749 mmHg 85%
    01:00 +2°C° 0 mm 3 mps 749 mmHg 87%
    02:00 +2°C° 0 mm 3 mps 749 mmHg 87%
    03:00 +2°C° 0 mm 3 mps 749 mmHg 86%
    04:00 +2°C° 0 mm 3 mps 749 mmHg 86%
    05:00 +3°C° 0 mm 3 mps 749 mmHg 88%
    06:00 +3°C° 0 mm 3 mps 749 mmHg 90%
    07:00 +3°C° 0 mm 4 mps 749 mmHg 92%
    08:00 +3°C° 0 mm 4 mps 749 mmHg 88%
    09:00 +3°C° 0 mm 5 mps 749 mmHg 83%
    10:00 +3°C° 0 mm 5 mps 749 mmHg 79%
    11:00 +3°C° 0.2 mm 5 mps 748 mmHg 79%
    12:00 +3°C° 0.2 mm 5 mps 748 mmHg 79%
    13:00 +3°C° 0.2 mm 5 mps 748 mmHg 80%
    14:00 +3°C° 0.7 mm 6 mps 747 mmHg 81%
    15:00 +3°C° 0.7 mm 6 mps 747 mmHg 82%
    16:00 +3°C° 0.7 mm 6 mps 746 mmHg 83%
    17:00 +3°C° 0.6 mm 6 mps 746 mmHg 84%
    18:00 +3°C° 0.6 mm 6 mps 746 mmHg 86%
    19:00 +3°C° 0.6 mm 6 mps 746 mmHg 87%
    20:00 +3°C° 0.3 mm 6 mps 746 mmHg 88%
    21:00 +3°C° 0.3 mm 6 mps 745 mmHg 90%
    22:00 +3°C° 0.3 mm 5 mps 745 mmHg 91%
    23:00 +3°C° 0.6 mm 5 mps 745 mmHg 92%

    Day after tomorrow, 22 February, Friday

    Time Temperature Precipitation Wind Pressure Humidity
    00:00 +5°C° 0.6 mm 5 mps 745 mmHg 92%
    01:00 +5°C° 0.6 mm 5 mps 745 mmHg 93%
    02:00 +3°C° 0.5 mm 5 mps 745 mmHg 93%
    03:00 +3°C° 0.5 mm 5 mps 745 mmHg 93%
    04:00 +3°C° 0.5 mm 5 mps 746 mmHg 93%
    05:00 +2°C° 0.3 mm 6 mps 747 mmHg 90%
    06:00 -1°C° 0.3 mm 6 mps 748 mmHg 87%
    07:00 -3°C° 0.3 mm 7 mps 749 mmHg 84%
    08:00 -3°C° 0 mm 7 mps 750 mmHg 78%
    09:00 -3°C° 0 mm 7 mps 752 mmHg 71%
    10:00 -3°C° 0 mm 7 mps 753 mmHg 65%
    11:00 -3°C° 0 mm 6 mps 754 mmHg 61%
    12:00 -3°C° 0 mm 6 mps 755 mmHg 57%
    13:00 -3°C° 0 mm 6 mps 756 mmHg 53%
    14:00 -3°C° 0 mm 6 mps 756 mmHg 54%
    15:00 -4°C° 0 mm 5 mps 757 mmHg 55%
    16:00 -4°C° 0 mm 5 mps 757 mmHg 56%
    17:00 -5°C° 0 mm 5 mps 758 mmHg 57%
    18:00 -6°C° 0 mm 5 mps 758 mmHg 58%
    19:00 -6°C° 0 mm 5 mps 759 mmHg 59%
    20:00 -5°C° 0 mm 4 mps 759 mmHg 56%
    21:00 -7°C° 0 mm 4 mps 760 mmHg 53%
    22:00 -7°C° 0 mm 4 mps 760 mmHg 49%
    23:00 -7°C° 0 mm 4 mps 761 mmHg 47%

    23 February, Saturday

    Time Temperature Precipitation Wind Pressure Humidity
    00:00 -7°C° 0 mm 4 mps 761 mmHg 44%
    01:00 -7°C° 0 mm 4 mps 761 mmHg 42%
    02:00 -7°C° 0 mm 4 mps 761 mmHg 41%
    03:00 -7°C° 0 mm 4 mps 761 mmHg 40%
    04:00 -7°C° 0 mm 3 mps 761 mmHg 40%
    05:00 -7°C° 0 mm 3 mps 761 mmHg 41%
    06:00 -7°C° 0 mm 3 mps 762 mmHg 42%
    07:00 -7°C° 0 mm 3 mps 762 mmHg 43%
    08:00 -6°C° 0 mm 3 mps 762 mmHg 41%
    09:00 -6°C° 0 mm 3 mps 763 mmHg 39%
    10:00 -5°C° 0 mm 3 mps 763 mmHg 37%
    11:00 -5°C° 0 mm 3 mps 763 mmHg 34%
    12:00 -3°C° 0 mm 2 mps 762 mmHg 32%
    13:00 -2°C° 0 mm 2 mps 762 mmHg 29%
    14:00 -2°C° 0 mm 2 mps 762 mmHg 30%
    15:00 -2°C° 0 mm 3 mps 762 mmHg 30%
    16:00 -2°C° 0 mm 3 mps 762 mmHg 31%
    17:00 -3°C° 0 mm 2 mps 762 mmHg 34%
    18:00 -3°C° 0 mm 2 mps 762 mmHg 38%
    19:00 -2°C° 0 mm 1 mps 762 mmHg 41%
    20:00 -2°C° 0 mm 1 mps 762 mmHg 40%
    21:00 -2°C° 0 mm 1 mps 762 mmHg 39%
    22:00 -1°C° 0 mm 1 mps 762 mmHg 38%
    23:00 -1°C° 0 mm 1 mps 761 mmHg 38%

    24 February, Sunday

    Time Temperature Precipitation Wind Pressure Humidity
    00:00 -1°C° 0 mm 1 mps 761 mmHg 38%
    01:00 -1°C° 0 mm 1 mps 761 mmHg 37%
    02:00 -1°C° 0 mm 1 mps 761 mmHg 37%
    03:00 -1°C° 0 mm 1 mps 761 mmHg 38%
    04:00 -1°C° 0 mm 1 mps 760 mmHg 38%
    05:00 -1°C° 0 mm 1 mps 760 mmHg 39%
    06:00 -3°C° 0 mm 2 mps 760 mmHg 40%
    07:00 -3°C° 0 mm 2 mps 760 mmHg 40%
    08:00 -2°C° 0 mm 2 mps 760 mmHg 37%
    09:00 -2°C° 0 mm 2 mps 760 mmHg 35%
    10:00 -1°C° 0 mm 3 mps 760 mmHg 32%
    11:00 0°C° 0 mm 3 mps 760 mmHg 32%
    12:00 +1°C° 0 mm 3 mps 759 mmHg 32%
    13:00 +2°C° 0 mm 3 mps 759 mmHg 33%
    14:00 +2°C° 0 mm 3 mps 759 mmHg 37%
    15:00 +2°C° 0 mm 2 mps 759 mmHg 41%
    16:00 +2°C° 0 mm 2 mps 758 mmHg 45%
    17:00 +1°C° 0 mm 2 mps 759 mmHg 49%
    18:00 +1°C° 0 mm 2 mps 759 mmHg 53%
    19:00 -1°C° 0 mm 2 mps 759 mmHg 56%
    20:00 -1°C° 0 mm 2 mps 759 mmHg 59%
    21:00 -2°C° 0 mm 2 mps 759 mmHg 62%
    22:00 0°C° 0 mm 1 mps 759 mmHg 64%
    23:00 0°C° 0 mm 1 mps 759 mmHg 66%

    25 February, Monday

    Time Temperature Precipitation Wind Pressure Humidity
    00:00 0°C° 0 mm 1 mps 759 mmHg 67%
    01:00 0°C° 0 mm 1 mps 759 mmHg 69%
    02:00 0°C° 0 mm 1 mps 759 mmHg 69%
    03:00 -2°C° 0 mm 2 mps 758 mmHg 69%
    04:00 -2°C° 0 mm 2 mps 758 mmHg 68%
    05:00 -2°C° 0 mm 2 mps 758 mmHg 68%
    06:00 -2°C° 0 mm 2 mps 758 mmHg 68%
    07:00 -1°C° 0 mm 2 mps 758 mmHg 67%
    08:00 -1°C° 0 mm 3 mps 758 mmHg 65%
    09:00 0°C° 0 mm 3 mps 758 mmHg 62%
    10:00 +1°C° 0 mm 3 mps 758 mmHg 59%
    11:00 +1°C° 0 mm 4 mps 757 mmHg 60%
    12:00 +3°C° 0 mm 4 mps 757 mmHg 62%
    13:00 +4°C° 0 mm 4 mps 757 mmHg 63%
    14:00 +4°C° 0 mm 4 mps 756 mmHg 69%
    15:00 +4°C° 0 mm 3 mps 756 mmHg 76%
    16:00 +4°C° 0 mm 3 mps 756 mmHg 82%
    17:00 +3°C° 0 mm 3 mps 756 mmHg 83%
    18:00 +2°C° 0 mm 3 mps 757 mmHg 83%
    19:00 +1°C° 0 mm 3 mps 757 mmHg 84%
    20:00 0°C° 0 mm 3 mps 757 mmHg 85%
    21:00 0°C° 0 mm 3 mps 757 mmHg 87%
    22:00 -1°C° 0 mm 3 mps 757 mmHg 89%
    23:00 -1°C° 0 mm 3 mps 757 mmHg 89%
    Show more